Location: Chmeln�
(49.6483°N, 14.9871°E)
Time: 06:23:52
(UTC+00:00)

Iridium 4 Rocket - Pass Details

Date: 18 September 2020
Orbit: 585 x 904 km, 86.9° (Epoch: 22 October)

Event Time Altitude Azimuth Distance (km) Brightness Sun altitude
Rises 17:41:18 0° 179° (S) 3,066 6.5 -6.5°
Reaches altitude 10° 17:43:29 10° 178° (S) 2,199 5.8 -6.8°
Maximum altitude 17:48:24 84° 92° (E) 780 3.5 -7.6°
Drops below altitude 10° 17:53:52 10° 4° (N) 2,427 6.2 -8.5°
Sets 17:56:22 0° 4° (N) 3,409 7.0 -8.9°
